Aérodrome :
LOGIN :

S'inscrire | Disclaimer

   EN    FR    IT 

 










Légende :    VFR   VFR Marginal   IFR   IFR Intensif   IFR Très Intensif
Visi : 
Plafond : 
>= 8 km
>= 3000ft
5 à 8 km
1000 à 3000 ft
1500m à 5 km
500 à 1000 ft
800 à 1500m
200 à 500 ft
< 800m
< 200 ft
Symboles :   Orages  Brouillard  Fortes neiges  Fortes précipitations  Vent > 20 kt
SIGMETs :   Divers  Orages  Givrage  Turbulence  Onde Orograph.  Cendres Volcan.







- Altitude de l'aérodrome : 15 ft
- Code IATA : BHD
- Voir les cartes d'approche


EGAC - George Best Belfast City

DERNIER METAR :
  • 240650Z AUTO 21008KT 9999 NCD 09/07 Q1010

METARs EXPIRÉS :
  • 240620Z AUTO 21010KT 9999 FEW033/// 08/06 Q1010
  • 240550Z AUTO 21011KT 9999 BKN035/// 08/06 Q1010
  • 240520Z AUTO 20010KT 9999 SCT029/// BKN043/// 08/06 Q1010
  • 240450Z AUTO 20008KT 9999 BKN043/// 08/06 Q1010
  • 240420Z AUTO 21008KT 9999 SCT026/// BKN042/// 08/06 Q1009

TAF TAF EGAC
Valide du 24 à 06h jusqu'au 24 à 15h UTC


240458Z 2406/2415 21010KT 9999 FEW018 SCT035
PROB30
TEMPO 2411/2415 6000 SHRA BKN014
ATIS : +44 02890 935 124
Pas de NOTAMs connus pour ce terrain.



MET'MAP, la Météo Aéronautique d'un coup d'oeil ! - Copyright ORBIFLY Décembre 2007 - Disclaimer

ORBIFLY MET'MAP TEAM :

Programmation & Développement : Alexandra Zaïnal
Conception & Développement : Baudouin d'Aumeries
Co-Programmation & Développement : Marc-Olivier Méhu
Soutien technique & logistique : Manuel Goepfert

Contact : metmap@orbifly.com




SOURCES & CREDITS :

   NOAA